Location: Holbach
(51.5399°N, 10.6036°E)
Time: 10:42:55
(UTC+00:00)

ATLAS CENTAUR R/B - Pass Details

Date: 22 January 2021
Orbit: 471 x 674 km, 64.6° (Epoch: 24 February)

Event Time Altitude Azimuth Distance (km) Brightness Sun altitude
Rises 05:53:30 0° 210° (SSW) 2,525 4.6 -11.6°
Reaches altitude 10° 05:55:39 10° 207° (SSW) 1,639 3.6 -11.3°
Maximum altitude 05:59:13 59° 128° (SE) 552 1.7 -10.7°
Drops below altitude 10° 06:02:48 10° 48° (NE) 1,649 4.2 -10.2°
Sets 06:04:58 0° 45° (NE) 2,543 5.1 -9.9°
